Flight Track Log - Related Links

Times and Time Zones

All times are in EDT time to prevent confusion due to time zone crossing. See the SWA553 flight status page for this flight to view local times or setup timezone preferences in your user account.

Time Position Orientation Groundspeed Altitude Reporting Facility
EDT Latitude Longitude Course Direction KTS MPH feet Rate Location/Type
Wed 10:52:39 PM 39.4833 -119.7667 180° South 243 280 5,800  Level Northern Cal TRACON
Wed 10:53:39 PM 39.4167 -119.7667 181° South 235 270 7,600 2,429 Climbing Northern Cal TRACON
Wed 10:54:45 PM 39.3439 -119.7681 176° South 285 328 10,900 2,784 Climbing Oakland Center
Wed 10:55:44 PM 39.2625 -119.7614 176° South 293 337 13,400 2,400 Climbing Oakland Center
Wed 10:56:45 PM 39.1811 -119.7547 179° South 293 337 15,700 2,430 Climbing Oakland Center
Wed 10:57:45 PM 39.0933 -119.7533 178° South 300 345 18,300 2,118 Climbing Oakland Center
Wed 10:58:44 PM 38.9994 -119.7497 177° South 316 364 19,900 1,664 Climbing Oakland Center
Wed 10:59:44 PM 38.8994 -119.7433 177° South 345 397 21,600 2,000 Climbing Oakland Center
Wed 11:00:44 PM 38.7908 -119.7372 179° South 369 425 23,900 2,250 Climbing Oakland Center
Wed 11:01:44 PM 38.6825 -119.7339 178° South 389 448 26,100 1,350 Climbing Oakland Center
Wed 11:02:44 PM 38.5675 -119.7278 177° South 401 461 26,600 446 Climbing Oakland Center
Wed 11:03:45 PM 38.4425 -119.7192 177° South 430 495 27,000 298 Climbing Oakland Center
Wed 11:04:45 PM 38.3047 -119.7111 178° South 443 510 27,200 1,000 Climbing Oakland Center
Wed 11:05:45 PM 38.1753 -119.7053 178° South 462 532 29,000 900 Climbing Oakland Center
Wed 11:06:45 PM 38.0417 -119.6997 178° South 467 537 29,000 807 Level Oakland Center
Wed 11:07:44 PM 37.9061 -119.6942 177° South 478 550 30,600 1,450 Climbing Oakland Center
Wed 11:08:45 PM 37.7725 -119.6861 177° South 483 556 31,900 1,190 Climbing Oakland Center
Wed 11:09:45 PM 37.6431 -119.6778 182° South 476 548 33,000 550 Climbing Oakland Center
Wed 11:10:45 PM 37.4950 -119.6831 176° South 491 565 33,000  Level Oakland Center
Wed 11:11:44 PM 37.3614 -119.6722 180° South 505 581 33,000  Level Oakland Center
Wed 11:12:45 PM 37.2403 -119.6717 177° South 499 574 33,000  Level Oakland Center
Wed 11:13:44 PM 37.1025 -119.6636 178° South 494 568 33,000  Level Oakland Center
Wed 11:14:44 PM 36.9628 -119.6583 178° South 494 568 33,000  Level Oakland Center
Wed 11:15:44 PM 36.8292 -119.6528 178° South 494 568 33,000  Level Oakland Center
Wed 11:16:44 PM 36.6936 -119.6475 177° South 494 568 33,000  Level Oakland Center
Wed 11:17:44 PM 36.5558 -119.6394 178° South 494 568 33,000  Level Oakland Center
Wed 11:18:45 PM 36.4203 -119.6342 178° South 494 568 33,000  Level Oakland Center
Wed 11:20:06 PM 36.2325 -119.6278 178° South 506 582 33,000  Level Los Angeles Center
Wed 11:21:06 PM 36.0969 -119.6219 178° South 506 582 33,000  Level Los Angeles Center
Wed 11:22:06 PM 35.9617 -119.6158 182° South 494 568 33,000  Level Los Angeles Center
Wed 11:23:06 PM 35.8300 -119.6206 181° South 489 563 33,000  Level Los Angeles Center
Wed 11:24:06 PM 35.6922 -119.6247 182° South 489 563 33,000  Level Los Angeles Center
Wed 11:25:06 PM 35.5564 -119.6292 174° South 494 568 33,000  Level Los Angeles Center
Wed 11:26:06 PM 35.4211 -119.6131 152° Southeast 494 568 33,000  Level Los Angeles Center
Wed 11:27:06 PM 35.2983 -119.5342 151° Southeast 489 563 33,000  Level Los Angeles Center
Wed 11:28:06 PM 35.1653 -119.4422 150° Southeast 495 570 33,000  Level Los Angeles Center
Wed 11:29:06 PM 35.0444 -119.3561 150° Southeast 495 570 33,000 -800 Level Los Angeles Center
Wed 11:30:06 PM 34.9214 -119.2703 150° Southeast 506 582 31,400 -2,700 Descending Los Angeles Center
Wed 11:31:06 PM 34.7983 -119.1844 151° Southeast 506 582 27,600 -3,150 Descending Los Angeles Center
Wed 11:32:06 PM 34.7061 -119.1231 152° Southeast 499 574 25,100 -2,850 Descending Los Angeles Center
Wed 11:33:06 PM 34.5828 -119.0431 150° Southeast 474 545 21,900 -2,900 Descending Los Angeles Center
Wed 11:34:06 PM 34.4800 -118.9714 151° Southeast 448 516 19,300 -2,600 Descending Los Angeles Center
Wed 11:35:06 PM 34.3814 -118.9050 160° South 421 484 16,700 -2,600 Descending Los Angeles Center
Wed 11:36:06 PM 34.2781 -118.8589 162° South 401 461 14,100 -2,450 Descending Los Angeles Center
Wed 11:37:06 PM 34.1706 -118.8178 156° South 384 442 11,800 -1,750 Descending Los Angeles Center
Wed 11:38:06 PM 34.0881 -118.7725 108° East 361 415 10,600 -950 Descending Los Angeles Center
Wed 11:39:06 PM 34.0608 -118.6739 104° East 291 335 9,900 -850 Descending Los Angeles Center
Wed 11:40:06 PM 34.0419 -118.5856 107° East 274 315 8,900 -1,100 Descending Los Angeles Center
Wed 11:41:06 PM 34.0206 -118.4997 99° East 274 315 7,700 -950 Descending Los Angeles Center
Wed 11:42:06 PM 34.0117 -118.4292 87° East 261 300 7,000 -1,350 Descending Los Angeles Center
Wed 11:43:06 PM 34.0150 -118.3592 84° East 232 267 5,000 -2,000 Descending Los Angeles Center
Wed 11:44:06 PM 34.0203 -118.2942 112° Southeast 212 244 3,000 -1,116 Descending Los Angeles Center
Wed 11:45:15 PM 34.0000 -118.2333 220° Southwest 175 201 2,600 -233 Descending Southern California TRACON
Wed 11:46:15 PM 33.9667 -118.2667 270° West 174 200 2,500 -526 Descending Southern California TRACON
Wed 11:47:09 PM 33.9667 -118.3167 239° Southwest 162 186 1,600 -835 Descending Southern California TRACON
Wed 11:48:10 PM 33.9500 -118.3500 270° West 122 140 900 -645 Descending Southern California TRACON
Wed 11:49:10 PM 33.9500 -118.4000 263° West 120 138 300 -414 Descending Southern California TRACON
Wed 11:50:06 PM 33.9467 -118.4350 263° West 128 147 100 -214 Descending Los Angeles Center

Login

Don't have an account? Register now (free) for customized features, flight alerts, and more!